Location: ???? ??????
(31.0685°N, 31.6425°E)
Time: 14:43:08
(UTC+00:00)

Daily predictions for brighter satellites

Satellite Brightness Start Highest point End
(mag) Time Altitude Azimuth Time Altitude Azimuth Time Altitude Azimuth
EXPRESS MD2 3.3 17:18:33 10° NW 17:21:31 84° SW 17:27:03 10° SE
Cosmos 1626 2.1 17:21:13 10° S 17:24:55 85° E 17:28:37 10° N
Cosmos 1818 4.2 17:21:45 10° S 17:26:34 34° ESE 17:31:25 10° NE
CZ-2C R/B 3.5 17:21:25 10° S 17:27:12 81° WSW 17:32:48 10° NNW
SL-16 R/B 2.2 17:22:15 10° SSW 17:27:53 76° ESE 17:33:33 10° NNE
ARGOS 3.2 17:23:16 10° SSE 17:28:39 72° ENE 17:34:04 10° N
SL-08 RB Rocket 3.9 17:28:16 10° SSE 17:32:36 52° ENE 17:36:56 10° N
Resurs 01 Rocket 3.5 17:31:24 10° ESE 17:33:52 15° ENE 17:36:19 10° NE
CZ-2C R/B 2.7 17:31:23 10° NNE 17:36:41 60° E 17:41:50 10° S
Cosmos 1892 Rocket 4.2 17:33:36 10° SSW 17:37:51 60° W 17:42:09 10° N
USA 215 3.8 17:34:26 10° ENE 17:40:12 33° SE 17:45:57 10° S
Meteor 2-14 Rocket 4.5 17:35:01 10° S 17:41:06 68° E 17:47:12 10° NNE
ATLAS 5 CENTAUR R/B 1.8 17:37:58 10° S 17:41:40 38° ESE 17:45:33 10° NE
Meteor 2-21 4.5 17:35:48 10° S 17:41:58 76° E 17:48:09 10° N
MONITOR-E 4.2 17:40:14 10° SSE 17:42:33 37° ENE 17:44:53 10° N
GEOS 3 Rocket 4.1 17:43:14 10° NE 17:48:15 39° ESE 17:53:12 10° S
Cosmos 2058 Rocket 3.1 17:44:01 10° N 17:48:30 70° E 17:52:56 10° SSE
USA 186 2.4 17:46:42 10° S 17:50:00 60° W 17:53:18 10° NNW
Ariane Rocket 3.4 17:51:41 10° S 17:56:44 67° WSW 18:01:49 10° NNW
DMSP B5D2-2 4.1 17:51:38 10° N 17:56:51 84° WNW 18:02:03 10° SSW
Cosmos 1244 Rocket 4.4 17:51:08 10° S 17:57:15 85° E 18:03:25 10° N
Cosmos 1626 Rocket 3.6 17:52:59 10° S 17:57:22 66° E 18:01:47 10° NNE
Cosmos 1745 Rocket 4.5 17:52:11 10° SSE 17:57:49 39° E 18:03:32 10° NNE
Cosmos 2227 4.2 17:53:26 10° NNW 17:59:13 81° ENE 18:04:37 12° SSE
OAO 3 Rocket 3.9 17:58:20 10° WNW 18:03:07 53° N 18:07:57 10° ENE
FREGAT/IRIS 4.0 18:02:48 10° SSW 18:05:14 32° W 18:07:40 10° NNW
Meteor 1-21 Rocket 4.4 18:03:22 10° S 18:09:04 55° E 18:14:51 10° NNE
Resurs 1-3 3.7 18:05:43 16° SSE 18:09:10 60° ENE 18:13:29 10° N
SJ 16-02 4.5 18:08:54 10° W 18:09:35 10° W 18:10:16 10° WSW
H-2A R/B 3.8 18:05:49 10° SSW 18:10:38 33° W 18:15:30 10° NW
BREEZE M DEB (TANK) 3.6 18:12:59 21° SE 18:14:14 26° ESE 18:20:12 10° ENE
SL-08 ROCKET BODY 4.5 18:08:32 10° SSE 18:14:15 55° E 18:20:05 10° NNE
Cosmos 1125 Rocket 3.9 18:09:38 10° N 18:14:41 46° ENE 18:17:46 22° SE
Cosmos 2322 Rocket 3.2 18:09:51 10° SW 18:15:14 48° WNW 18:20:40 10° N
Cosmos 2237 4.2 18:11:59 10° SSW 18:17:42 90° SE 18:23:28 10° NNE
SPOT 3 Rocket 3.5 18:13:48 15° SSE 18:18:09 79° ENE 18:23:23 10° N
Cosmos 1300 3.8 18:18:25 10° NNW 18:22:02 42° W 18:25:38 10° SSW
Cosmos 2298 Rocket 4.2 18:18:24 10° NNW 18:23:43 76° WSW 18:27:52 17° S
OAO 2 Rocket 3.7 18:19:29 10° W 18:24:46 69° NNW 18:30:05 10° ENE
SJ-6B 4.5 18:23:38 10° SSW 18:27:07 31° W 18:30:43 10° NW
Milstar 3 Cent rocket 4.2 18:26:26 10° SW 18:28:38 13° SSW 18:30:34 11° S
Cosmos 1825 Rocket 3.9 18:33:11 33° SE 18:34:35 45° E 18:38:50 10° NNE
COSMOS 2428 3.4 18:33:39 29° SE 18:34:56 32° ESE 18:39:54 10° NE
Geosat 3.9 18:34:36 29° SSE 18:37:16 83° ENE 18:42:19 10° NNW
Cosmos 2322 3.7 18:33:12 10° S 18:38:49 65° ESE 18:44:29 10° NNE
SL-24 R/B - RUBIN 2 4.3 18:33:11 10° SSW 18:38:51 90° SE 18:45:16 10° NNE
Cosmos 1461 3.1 18:35:15 10° NNW 18:40:01 84° ENE 18:41:51 38° SSE
Cosmos 1703 3.2 18:40:05 45° SSE 18:41:02 61° E 18:44:51 10° NNE
Cosmos 1455 2.5 18:37:43 10° N 18:41:26 46° E 18:41:50 44° ESE
NOSS 3-3 (A) 3.8 18:36:19 10° S 18:41:45 55° ESE 18:47:41 10° NE
NOSS 3-3 (C) 3.8 18:36:25 10° S 18:41:52 54° ESE 18:47:48 10° NE
Cosmos 1709 Rocket 4.2 18:39:37 27° SSE 18:42:49 51° E 18:48:54 10° NNE
MetOp-B 4.1 18:46:27 36° SE 18:48:38 65° ENE 18:53:56 10° N
Cosmos 2237 Rocket 4.3 18:51:25 11° ENE 18:51:25 11° ENE 18:51:47 10° ENE
Cosmos 1812 Rocket 3.4 18:45:10 10° N 18:49:31 87° W 18:51:00 41° S
Delta 2 Rocket 4.1 18:46:54 10° WNW 18:50:04 35° N 18:51:17 26° NE
Cosmos 2333 4.1 18:45:01 10° SSW 18:50:37 81° ESE 18:56:18 10° NNE
Cosmos 2219 Rocket 2.3 18:49:04 33° SSE 18:51:15 52° ESE 18:56:40 10° NNE
Atlas Centaur 2 2.4 18:45:55 10° W 18:51:43 86° S 18:56:13 24° E
Terra 3.8 18:52:48 15° ENE 18:52:52 15° ENE 18:55:27 10° NE
Nadezhda 1 Rocket 4.0 18:46:35 10° N 18:53:01 83° E 18:56:23 30° S
Cosmos 2360 Rocket 3.3 18:47:48 10° SW 18:53:10 45° WNW 18:58:34 10° N
Cosmos 2263 Rocket 3.5 18:49:42 10° NW 18:54:40 34° WSW 18:58:34 15° SSW
Cosmos 1538 Rocket 4.3 18:54:45 43° SE 18:55:34 46° ESE 19:00:39 10° NNE
IGS 5A 3.5 18:59:07 55° E 18:59:20 56° ENE 19:03:24 10° N
Cosmos 2333 Rocket 2.1 18:57:31 26° S 19:00:43 71° ESE 19:06:25 10° NNE
DELTA 2 R/B (1) 3.5 18:55:12 10° WSW 19:00:47 90° NNW 19:06:24 10° ENE
Resurs 01 Rocket 2.8 19:08:07 25° SSW 19:09:59 37° W 19:14:05 10° NNW
Cosmos 773 Rocket 4.2 19:09:14 21° SSW 19:12:45 71° WNW 19:18:02 10° NNE
ERS-1 Rocket 3.3 19:16:52 46° E 19:17:01 47° ENE 19:21:50 10° N
Cosmos-2242 3.0 19:18:00 10° N 19:22:14 84° NNW 19:22:14 84° NNW
USA 215 4.0 19:16:55 10° NNE 19:23:15 54° NW 19:29:33 10° WSW
Meteor 1-11 4.2 19:23:17 47° SSW 19:24:59 82° W 19:30:40 10° N
Cosmos 2278 Rocket 4.2 19:27:44 10° NNE 19:30:51 15° ENE 19:31:19 15° ENE
ATLAS CENTAUR R/B 4.1 19:29:04 10° W 19:31:00 18° SW 19:31:00 18° SW
SPOT 5 3.1 19:34:42 61° ENE 19:34:42 61° ENE 19:39:20 10° N
Cosmos 1844 Rocket 2.5 19:30:39 10° NNW 19:36:14 87° WSW 19:36:36 79° S
Spot 2 Rocket 4.0 19:36:33 46° SW 19:37:19 50° W 19:42:16 10° NNW
H-2A ROCKET BODY 3.8 19:32:55 10° W 19:38:53 62° S 20:11:39 10° ESE
USA 81 4.0 19:39:13 74° SW 19:39:35 79° W 19:44:53 10° N
Cosmos 1400 Rocket 4.0 19:39:04 10° NNW 19:42:04 40° WNW 19:42:04 40° WNW
Cosmos 2074 Rocket 4.0 19:44:36 62° E 19:44:36 62° E 19:50:41 10° NNE
OAO 3 Rocket 3.5 19:41:59 10° WNW 19:46:11 64° NW 19:46:11 64° NW
Cosmos 2181 Rocket 3.8 19:42:36 10° N 19:48:56 86° E 19:49:24 77° SSE
SPOT 1/Viking Rocket 4.1 19:51:15 49° WSW 19:51:29 49° W 19:56:28 10° NNW
VEP-3 3.5 19:58:30 10° WSW 20:18:55 13° ESE 20:21:19 10° ESE
Cosmos 2344 3.4 20:06:07 67° ESE 20:06:07 67° ESE 20:13:33 10° NE
OAO 2 Rocket 4.0 20:04:44 10° WNW 20:09:32 55° NNW 20:09:32 55° NNW
Cosmos 1980 4.0 20:15:08 62° N 20:15:08 62° N 20:19:49 10° NNE
COSMOS 2428 4.5 20:15:32 15° WSW 20:19:07 27° WNW 20:23:54 10° N
NOSS 0 Rocket 4.4 20:23:36 51° W 20:24:18 54° WNW 20:30:20 10° N
ATLAS CENTAUR R/B 3.9 20:21:25 10° NNW 20:22:16 16° NNW 20:22:16 16° NNW
Terra 3.3 20:31:41 33° NW 20:31:41 33° NW 20:34:43 10° NNW
Cosmos 2237 Rocket 2.8 20:33:12 54° NW 20:33:12 54° NW 20:38:05 10° NNE
Atlas Centaur 2 3.4 20:34:34 10° W 20:38:47 43° W 20:38:47 43° W
ATLAS 2AS CENTAUR R/B 3.5 20:52:03 10° NNW 20:58:54 41° NE 20:59:01 40° NE
MOS 1-B Rocket 4.4 20:52:49 10° N 20:59:26 69° NNW 20:59:26 69° NNW
Cosmos 2278 Rocket 3.4 21:09:45 10° NNW 21:13:09 36° NW 21:13:09 36° NW
SL-16 R/B 3.4 21:18:55 38° N 21:18:55 38° N 21:22:23 10° NNE
Cosmos 1943 Rocket 4.4 21:20:01 10° NNE 21:23:11 16° NE 21:23:11 16° NE
USA 267 3.6 21:34:05 60° NNW 21:34:05 60° NNW 21:39:23 10° NW
COSMOS 2455 4.3 21:50:35 10° N 21:55:19 29° NE 21:55:19 29° NE
Cosmos 2369 Rocket 3.9 22:03:18 10° N 22:07:04 25° NE 22:07:04 25° NE
CZ-2D R/B 4.1 22:34:58 10° NE 22:37:33 22° ENE 22:37:33 22° ENE
Lacrosse 5 4.2 22:48:42 16° ENE 22:48:42 16° ENE 22:49:58 10° ENE
ATLAS 2AS CENTAUR R/B 4.3 22:43:26 10° NW 22:46:25 22° WNW 22:46:25 22° WNW
Cosmos 1943 4.4 22:56:06 37° NNW 22:56:06 37° NNW 22:59:53 10° N
Lacrosse 5 rocket 4.3 23:05:14 10° N 23:06:18 13° NNE 23:06:18 13° NNE
Cosmos 1943 Rocket 3.7 23:02:02 10° NNW 23:04:40 28° NW 23:04:40 28° NW
Cosmos 2123 Rocket 4.4 23:10:34 10° N 23:15:27 58° NNW 23:15:27 58° NNW
Iridium 4 Rocket 4.2 23:28:48 59° NNW 23:28:48 59° NNW 23:33:26 10° N
SL-16 R/B 2.7 23:31:34 64° E 23:31:51 64° ENE 23:38:01 10° N
Cosmos 1605 Rocket 4.3 23:34:31 57° NW 23:34:31 57° NW 23:39:56 10° N
CZ-4B R/B 4.2 23:33:17 10° NNE 23:37:13 48° NE 23:37:13 48° NE
CZ-4C R/B 3.1 23:34:09 10° NNW 23:41:56 81° ENE 23:45:19 41° SE
Resurs 1-4 Rocket 2.7 23:44:33 10° N 23:48:44 49° NNW 23:48:44 49° NNW
Cosmos 2369 Rocket 4.0 23:47:00 10° NW 23:48:49 19° NW 23:48:49 19° NW
SeaSat 1 4.0 23:48:01 10° N 23:51:20 26° NW 23:51:20 26° NW
